Location: Los Angeles
(34.0542°N, 118.2411°W)
Time: 07:45:18
(UTC-07:00)

Daily predictions for brighter satellites

Satellite Brightness Start Highest point End
(mag) Time Altitude Azimuth Time Altitude Azimuth Time Altitude Azimuth
OAO 3 Copernicus 4.4 18:59:16 10° W 19:04:21 79° N 19:09:24 10° E
Cosmos 2228 3.0 19:03:13 10° S 19:07:30 61° E 19:11:47 10° NNE
ISS -3.8 19:05:18 10° SW 19:08:32 68° SE 19:11:48 10° NE
Cosmos 2298 Rocket 4.1 19:04:43 10° NNW 19:10:05 89° ENE 19:15:24 10° SSE
Milstar 3 Cent rocket 3.2 19:08:42 10° SW 19:14:42 34° S 19:19:02 10° ESE
Meteor 2-5 Rocket 3.8 19:09:37 10° N 19:15:23 62° E 19:20:59 10° SSE
ALOS 2.4 19:12:13 10° SSE 19:16:45 53° ENE 19:21:17 10° N
Cosmos 2181 Rocket 4.0 19:11:51 10° N 19:18:01 83° E 19:24:08 10° S
Centaur D AC-29 3.5 18:55:26 10° WSW 19:19:05 39° S 19:24:06 10° ESE
YAOGAN 1 4.2 19:17:30 10° S 19:21:33 40° W 19:25:38 10° NNW
Cosmos 2074 Rocket 4.0 19:16:53 10° S 19:22:56 59° E 19:29:01 10° NNE
FREGAT/IRIS 3.3 19:24:49 10° SE 19:27:34 33° ENE 19:30:20 10° N
Cosmos 1812 Rocket 4.3 19:26:37 10° SSE 19:30:34 32° E 19:34:33 10° NNE
Cosmos 1805 4.0 19:28:25 10° SSE 19:31:50 30° E 19:35:16 10° NNE
FALCON 9 R/B 1.0 19:29:39 10° W 19:32:09 82° N 19:36:10 15° E
Cosmos 2082 Rocket 3.9 19:34:51 10° SE 19:35:35 12° ESE 19:35:35 12° ESE
Cosmos 836 Rocket 4.5 19:32:37 10° SSW 19:37:54 87° ESE 19:43:12 10° NNE
ATLAS 5 CENTAUR R/B 3.2 19:36:58 10° SSE 19:39:22 16° ESE 19:39:22 16° ESE
Resurs 01 Rocket 3.0 19:39:30 18° E 19:40:29 19° ENE 19:43:35 10° NNE
Cosmos 2058 Rocket 4.2 19:36:23 10° SSW 19:40:34 46° W 19:44:48 10° N
Cosmos 1943 Rocket 4.1 19:36:39 10° NW 19:41:33 32° WSW 19:46:30 10° SSW
GP-B 4.0 19:39:58 10° NNE 19:43:41 26° E 19:46:26 15° SE
Thor Agena Rocket 3.8 19:39:11 10° N 19:44:24 76° WNW 19:49:32 10° SSW
BREEZE-M DEB (TANK) 3.1 19:44:05 10° SSW 19:46:33 24° SE 19:46:33 24° SE
USA 234 3.5 19:40:49 10° SE 19:47:21 73° SW 19:53:55 10° NW
Meteor 2-19 Rocket 4.4 19:44:15 10° S 19:50:07 57° E 19:56:02 10° NNE
Cosmos 1900 4.4 19:49:43 10° SSW 19:54:47 88° WNW 19:59:57 10° NNE
Nadezhda 3 Rocket 4.3 19:51:08 10° N 19:57:03 42° E 20:02:33 11° SSE
Cosmos 372 Rocket 4.1 19:52:40 10° N 19:57:48 52° ENE 20:01:24 19° SE
Cosmos 1356 3.9 19:55:22 10° N 19:58:39 38° E 19:58:50 38° E
ORS 1 (USA 231) 4.4 19:56:25 10° WNW 19:59:21 68° NNE 19:59:47 56° ENE
Cosmos 2184 Rocket 4.4 19:56:54 10° SSW 20:03:08 66° W 20:09:29 10° N
Cosmos 1125 Rocket 3.4 19:58:01 10° NNW 20:03:19 68° ENE 20:07:41 15° SSE
Geosat 3.9 19:59:34 10° SSE 20:04:31 85° ENE 20:09:34 10° NNW
Envisat 3.7 20:04:28 30° E 20:05:08 31° ENE 20:09:33 10° N
Cosmos 2285 Rocket 4.4 19:59:34 10° SSE 20:05:29 41° E 20:11:26 10° NNE
OAO 3 Rocket 4.0 20:01:38 10° SW 20:05:59 33° SSE 20:06:50 30° SE
Meteor 1-24 Rocket 4.0 20:02:28 10° NNW 20:08:21 72° W 20:14:00 10° S
Cosmos 1544 4.2 20:05:32 10° SSW 20:08:59 45° W 20:12:29 10° N
Yuri Rocket 3.8 20:04:42 10° WSW 20:09:18 40° S 20:10:29 33° SE
H-2A R/B 2.9 20:05:46 10° S 20:09:26 68° W 20:13:11 10° NNW
SJ-6B 2.9 20:07:59 10° S 20:11:59 77° WSW 20:15:55 10° NNW
Gbstr 26 Del rocket 3.8 20:08:03 10° SSW 20:12:33 43° SE 20:13:43 37° E
Cosmos 1953 2.2 20:13:50 10° S 20:17:50 68° E 20:21:52 10° NNE
SL-27 R/B 3.6 20:17:46 10° SW 20:21:13 45° WNW 20:24:45 10° N
SL-8 Rocket 4.4 20:23:07 38° E 20:23:07 38° E 20:28:22 10° NNE
ATLAS 2AS CENTAUR R/B 3.8 20:19:53 10° NNW 20:26:40 30° NE 20:28:02 28° ENE
Cosmos 292 Rocket 4.2 20:25:50 10° SSW 20:30:37 63° WNW 20:35:27 10° N
Cosmos 1674 4.1 20:33:40 10° N 20:35:35 29° N 20:35:35 29° N
SJ 16-02 1.4 20:34:20 10° NNW 20:38:42 75° WSW 20:39:03 70° SSW
Cosmos 962 Rocket 4.5 20:35:04 10° S 20:41:26 85° W 20:47:50 10° N
NOSS 3-3 (A) 3.8 20:36:15 10° SSW 20:42:10 65° ESE 20:43:27 53° ENE
NOSS 3-3 (C) 3.8 20:36:21 10° SSW 20:42:16 65° ESE 20:43:19 55° ENE
ISS -0.9 20:43:36 10° WNW 20:45:19 13° NNW 20:45:56 13° NNW
Resurs 1-3 3.8 20:48:03 68° NW 20:48:03 68° NW 20:51:59 10° NNW
OAO 3 Copernicus 4.3 20:43:54 10° W 20:48:41 75° SW 20:48:41 75° SW
Cosmos 1833 Rocket 4.0 20:49:04 10° SSW 21:01:49 - NNE 20:51:29 27° S
Cosmos 1538 Rocket 4.4 20:50:44 10° SSW 20:59:26 23° NNE 21:01:19 10° NNE
ATLAS CENTAUR R/B 3.9 20:50:06 10° NW 20:58:08 32° WSW 20:59:51 25° SW
Cosmos 2369 4.1 20:53:38 10° NNW 20:58:05 51° NNE 20:58:05 51° NNE
Spot 2 Rocket 4.2 21:11:25 51° W 21:11:25 51° W 21:16:14 10° NNW
Resurs 01 Rocket 3.3 21:17:05 31° W 21:17:05 31° W 21:20:40 10° NW
Cosmos 2082 Rocket 3.9 21:15:36 10° SSW 21:27:22 - NNE 21:17:43 23° SW
ATLAS 5 CENTAUR R/B 3.9 21:19:39 10° SW 21:21:04 19° WSW 21:21:04 19° WSW
Cosmos 1980 Rocket 4.4 21:46:55 10° NNW 21:48:11 17° N 21:48:11 17° N
ATLAS 2AS CENTAUR R/B 3.9 22:10:28 10° NW 22:15:30 40° NW 22:15:30 40° NW
